QTR8MV OMDB-EDDF

Flight info

Callsign QTR8MV
Flight time N/A
Altitude 34000
Route RIDAP M557 TUMAK L602 ITEVO/N0477F360 L602 GADSI M860 SEPTU DCT VUSEB M860 NINVA UM860 ODALI UL852 VAXEB/N0472F380 UL852 NEGEM DCT MAXOV DCT IRLOX DCT BALUX DCT TEKNO DCT ABETI DCT TAGAS DCT SUBEN DCT AKINI T161 DEBHI SPESA5C
Aircraft A333/H-SDE3GHIJ2J3J5M1RVWXY/LB2D1

Departure

Time 2026-04-24 01:28
Airport Dubai International Airport (OMDB)

Arrival

Time N/A
Airport Frankfurt Main Airport (EDDF)
Time Latitude Longitude Altitude Speed Heading
2026-04-24 00:52 25.25993 55.34268 26 ft 0 kts 212°
2026-04-24 01:13 25.26000 55.34273 26 ft 3 kts 212°
2026-04-24 01:13 25.26018 55.34284 31 ft 3 kts 212°
2026-04-24 01:13 25.26035 55.34296 31 ft 3 kts 212°
2026-04-24 01:14 25.26052 55.34308 31 ft 3 kts 212°
2026-04-24 01:14 25.26070 55.34319 31 ft 3 kts 212°
2026-04-24 01:14 25.26087 55.34331 31 ft 3 kts 212°
2026-04-24 01:14 25.26104 55.34343 31 ft 3 kts 212°
2026-04-24 01:15 25.26121 55.34354 31 ft 3 kts 205°
2026-04-24 01:15 25.26140 55.34361 31 ft 3 kts 183°
2026-04-24 01:15 25.26158 55.34359 30 ft 3 kts 149°
2026-04-24 01:15 25.26171 55.34347 31 ft 1 kts 122°
2026-04-24 01:16 25.26169 55.34351 31 ft 2 kts 121°
2026-04-24 01:16 25.26158 55.34370 31 ft 3 kts 121°
2026-04-24 01:16 25.26148 55.34389 30 ft 3 kts 121°
2026-04-24 01:16 25.26142 55.34398 31 ft 0 kts 121°
2026-04-24 01:19 25.26132 55.34416 31 ft 5 kts 121°
2026-04-24 01:19 25.26105 55.34467 27 ft 10 kts 122°
2026-04-24 01:19 25.26060 55.34544 30 ft 14 kts 123°
2026-04-24 01:19 25.26063 55.34613 29 ft 8 kts 49°
2026-04-24 01:20 25.26103 55.34661 31 ft 10 kts 47°
2026-04-24 01:20 25.26159 55.34726 31 ft 14 kts 44°
2026-04-24 01:20 25.26246 55.34796 29 ft 17 kts 33°
2026-04-24 01:20 25.26333 55.34869 30 ft 13 kts 68°
2026-04-24 01:21 25.26304 55.34961 30 ft 14 kts 118°
2026-04-24 01:21 25.26245 55.35069 31 ft 20 kts 121°
2026-04-24 01:21 25.26157 55.35229 30 ft 29 kts 122°
2026-04-24 01:21 25.26050 55.35418 30 ft 29 kts 122°
2026-04-24 01:22 25.25944 55.35614 30 ft 29 kts 121°
2026-04-24 01:22 25.25841 55.35797 31 ft 27 kts 122°
2026-04-24 01:22 25.25743 55.35970 27 ft 26 kts 121°
2026-04-24 01:22 25.25653 55.36135 30 ft 24 kts 121°
2026-04-24 01:23 25.25560 55.36303 30 ft 27 kts 122°
2026-04-24 01:23 25.25456 55.36492 27 ft 30 kts 122°
2026-04-24 01:23 25.25345 55.36692 30 ft 32 kts 121°
2026-04-24 01:23 25.25226 55.36906 30 ft 33 kts 121°
2026-04-24 01:24 25.25103 55.37128 29 ft 34 kts 121°
2026-04-24 01:24 25.24987 55.37343 30 ft 32 kts 120°
2026-04-24 01:24 25.24879 55.37541 31 ft 23 kts 117°
2026-04-24 01:24 25.24854 55.37593 30 ft 8 kts 123°
2026-04-24 01:25 25.24812 55.37665 30 ft 14 kts 122°
2026-04-24 01:25 25.24749 55.37771 31 ft 17 kts 123°
2026-04-24 01:25 25.24716 55.37830 30 ft 9 kts 116°
2026-04-24 01:25 25.24730 55.37872 29 ft 3 kts 45°
2026-04-24 01:26 25.24741 55.37884 27 ft 3 kts 39°
2026-04-24 01:26 25.24770 55.37904 29 ft 6 kts 32°
2026-04-24 01:26 25.24820 55.37938 29 ft 3 kts 30°
2026-04-24 01:26 25.24837 55.37943 28 ft 4 kts
2026-04-24 01:27 25.24856 55.37931 27 ft 2 kts 314°
2026-04-24 01:27 25.24877 55.37890 31 ft 13 kts 300°
2026-04-24 01:27 25.24997 55.37672 30 ft 60 kts 302°
2026-04-24 01:27 25.25312 55.37111 30 ft 111 kts 302°
2026-04-24 01:28 25.25801 55.36235 31 ft 155 kts 302°
2026-04-24 01:28 25.26421 55.35110 204 ft 180 kts 302°
2026-04-24 01:28 25.27066 55.33931 722 ft 177 kts 303°
2026-04-24 01:28 25.27706 55.32813 1256 ft 163 kts 303°
2026-04-24 01:29 25.28291 55.31778 1551 ft 163 kts 303°
2026-04-24 01:29 25.28898 55.30689 1647 ft 174 kts 302°
2026-04-24 01:29 25.29573 55.29521 1769 ft 186 kts 304°
2026-04-24 01:29 25.30324 55.28302 1915 ft 198 kts 305°
2026-04-24 01:30 25.31135 55.27015 2071 ft 210 kts 305°
2026-04-24 01:30 25.32002 55.25649 2222 ft 224 kts 306°
2026-04-24 01:30 25.32931 55.24190 2355 ft 241 kts 306°
2026-04-24 01:30 25.33921 55.22626 2525 ft 256 kts 306°
2026-04-24 01:31 25.34956 55.20983 2900 ft 262 kts 304°
2026-04-24 01:31 25.35692 55.19352 3338 ft 262 kts 283°
2026-04-24 01:31 25.35851 55.17347 3797 ft 263 kts 269°
2026-04-24 01:31 25.35786 55.15314 4264 ft 266 kts 266°
2026-04-24 01:32 25.35690 55.13269 4784 ft 266 kts 266°
2026-04-24 01:32 25.35601 55.11257 5295 ft 266 kts 266°
2026-04-24 01:32 25.35515 55.09172 5799 ft 268 kts 266°
2026-04-24 01:32 25.35439 55.07107 6339 ft 270 kts 266°
2026-04-24 01:33 25.35363 55.05055 6844 ft 271 kts 266°
2026-04-24 01:33 25.35284 55.02968 7371 ft 272 kts 265°
2026-04-24 01:33 25.35207 55.00928 7916 ft 273 kts 265°
2026-04-24 01:33 25.35130 54.98850 8473 ft 275 kts 265°
2026-04-24 01:34 25.35051 54.96733 9045 ft 276 kts 265°
2026-04-24 01:34 25.34972 54.94606 9639 ft 278 kts 265°
2026-04-24 01:34 25.34897 54.92463 10153 ft 281 kts 266°
2026-04-24 01:34 25.35050 54.90255 10401 ft 297 kts 279°
2026-04-24 01:35 25.35600 54.87987 10615 ft 313 kts 284°
2026-04-24 01:35 25.36276 54.85642 10816 ft 327 kts 285°
2026-04-24 01:35 25.36992 54.83201 11041 ft 339 kts 285°
2026-04-24 01:35 25.37728 54.80673 11243 ft 351 kts 285°
2026-04-24 01:36 25.38481 54.78069 11507 ft 359 kts 285°
2026-04-24 01:36 25.39236 54.75448 11888 ft 363 kts 285°
2026-04-24 01:36 25.40004 54.72770 12307 ft 367 kts 285°
2026-04-24 01:36 25.40775 54.70074 12747 ft 369 kts 285°
2026-04-24 01:37 25.41551 54.67356 13190 ft 371 kts 285°
2026-04-24 01:37 25.42329 54.64624 13639 ft 373 kts 286°
2026-04-24 01:37 25.43116 54.61866 14039 ft 376 kts 286°
2026-04-24 01:37 25.43921 54.59100 14434 ft 378 kts 286°
2026-04-24 01:38 25.44729 54.56359 14810 ft 380 kts 287°
2026-04-24 01:38 25.45558 54.53567 15202 ft 382 kts 287°
2026-04-24 01:38 25.46393 54.50759 15588 ft 384 kts 287°
2026-04-24 01:38 25.47230 54.47940 15950 ft 387 kts 287°
2026-04-24 01:39 25.48071 54.45101 16292 ft 390 kts 287°
2026-04-24 01:39 25.48916 54.42239 16662 ft 392 kts 287°
2026-04-24 01:39 25.49767 54.39357 17031 ft 394 kts 287°
2026-04-24 01:39 25.50618 54.36468 17443 ft 395 kts 287°
2026-04-24 01:40 25.51471 54.33568 17835 ft 396 kts 287°
2026-04-24 01:40 25.52327 54.30658 18175 ft 399 kts 287°
2026-04-24 01:40 25.53188 54.27729 18463 ft 401 kts 287°
2026-04-24 01:40 25.54050 54.24791 18771 ft 403 kts 287°
2026-04-24 01:41 25.54919 54.21830 19039 ft 405 kts 287°
2026-04-24 01:41 25.55791 54.18859 19329 ft 407 kts 287°
2026-04-24 01:41 25.56657 54.15908 19627 ft 408 kts 286°
2026-04-24 01:41 25.57535 54.12912 19917 ft 410 kts 286°
2026-04-24 01:42 25.58418 54.09898 20201 ft 412 kts 286°
2026-04-24 01:42 25.59304 54.06865 20502 ft 414 kts 286°
2026-04-24 01:42 25.60186 54.03812 20780 ft 416 kts 286°
2026-04-24 01:42 25.61060 54.00755 21060 ft 417 kts 286°
2026-04-24 01:43 25.61934 53.97684 21333 ft 419 kts 286°
2026-04-24 01:43 25.62813 53.94592 21626 ft 421 kts 286°
2026-04-24 01:43 25.63694 53.91490 21913 ft 422 kts 286°
2026-04-24 01:43 25.64579 53.88375 22192 ft 424 kts 286°
2026-04-24 01:44 25.65455 53.85291 22461 ft 426 kts 286°
2026-04-24 01:44 25.66347 53.82148 22715 ft 428 kts 286°
2026-04-24 01:44 25.67241 53.78997 22987 ft 430 kts 286°
2026-04-24 01:44 25.68140 53.75830 23259 ft 431 kts 286°
2026-04-24 01:45 25.69041 53.72645 23508 ft 433 kts 286°
2026-04-24 01:45 25.69943 53.69450 23739 ft 435 kts 286°
2026-04-24 01:45 25.70845 53.66247 23985 ft 435 kts 286°
2026-04-24 01:45 25.71747 53.63038 24226 ft 437 kts 286°
2026-04-24 01:46 25.72651 53.59815 24461 ft 438 kts 286°
2026-04-24 01:46 25.73555 53.56589 24696 ft 439 kts 286°
2026-04-24 01:46 25.74461 53.53357 24930 ft 440 kts 286°
2026-04-24 01:46 25.75369 53.50115 25176 ft 441 kts 286°
2026-04-24 01:47 25.76284 53.46855 25414 ft 441 kts 286°
2026-04-24 01:47 25.77186 53.43641 25637 ft 442 kts 286°
2026-04-24 01:47 25.78104 53.40370 25875 ft 443 kts 286°
2026-04-24 01:47 25.79019 53.37105 26098 ft 444 kts 286°
2026-04-24 01:48 25.79938 53.33821 26324 ft 446 kts 286°
2026-04-24 01:48 25.80857 53.30537 26538 ft 447 kts 285°
2026-04-24 01:48 25.81778 53.27242 26751 ft 448 kts 285°
2026-04-24 01:48 25.82701 53.23935 26973 ft 449 kts 286°
2026-04-24 01:49 25.83629 53.20625 27217 ft 449 kts 287°
2026-04-24 01:49 25.84752 53.17378 27408 ft 451 kts 291°
2026-04-24 01:49 25.85987 53.14165 27636 ft 452 kts 292°
2026-04-24 01:49 25.87263 53.10961 27822 ft 454 kts 292°
2026-04-24 01:50 25.88566 53.07755 28020 ft 455 kts 292°
2026-04-24 01:50 25.89878 53.04550 28214 ft 456 kts 292°
2026-04-24 01:50 25.91177 53.01381 28397 ft 457 kts 292°
2026-04-24 01:50 25.92495 52.98157 28626 ft 457 kts 292°
2026-04-24 01:51 25.93809 52.94934 28853 ft 457 kts 292°
2026-04-24 01:51 25.95119 52.91710 29048 ft 458 kts 292°
2026-04-24 01:51 25.96404 52.88543 29216 ft 459 kts 292°
2026-04-24 01:51 25.97718 52.85298 29403 ft 460 kts 292°
2026-04-24 01:52 25.99031 52.82051 29607 ft 460 kts 292°
2026-04-24 01:52 26.00341 52.78811 29912 ft 458 kts 292°
2026-04-24 01:52 26.01567 52.75779 30166 ft 456 kts 292°
2026-04-24 01:52 26.02932 52.72552 30504 ft 453 kts 294°
2026-04-24 01:53 26.04336 52.69386 30825 ft 450 kts 294°
2026-04-24 01:53 26.05742 52.66285 31065 ft 448 kts 295°
2026-04-24 01:53 26.07152 52.63197 31297 ft 447 kts 294°
2026-04-24 01:53 26.08539 52.60153 31526 ft 446 kts 294°
2026-04-24 01:54 26.09934 52.57078 31768 ft 445 kts 294°
2026-04-24 01:54 26.11322 52.54007 32007 ft 443 kts 294°
2026-04-24 01:54 26.12701 52.50951 32231 ft 442 kts 294°
2026-04-24 01:54 26.14080 52.47892 32445 ft 441 kts 294°
2026-04-24 01:55 26.15456 52.44841 32645 ft 440 kts 294°
2026-04-24 01:55 26.16830 52.41791 32865 ft 439 kts 294°
2026-04-24 01:55 26.18198 52.38752 33079 ft 438 kts 294°
2026-04-24 01:55 26.19561 52.35721 33298 ft 437 kts 294°
2026-04-24 01:56 26.20919 52.32701 33507 ft 435 kts 294°
2026-04-24 01:56 26.22262 52.29693 33712 ft 434 kts 293°
2026-04-24 01:56 26.23585 52.26674 33879 ft 433 kts 293°
2026-04-24 01:57 26.26196 52.20632 34017 ft 436 kts 293°
2026-04-24 01:57 26.28819 52.14544 34072 ft 434 kts 293°
2026-04-24 01:58 26.31431 52.08489 34085 ft 432 kts 292°
2026-04-24 01:58 26.34038 52.02453 34076 ft 432 kts 292°
2026-04-24 01:59 26.36650 51.96403 34084 ft 433 kts 292°
2026-04-24 01:59 26.38924 51.90201 34082 ft 432 kts 288°
2026-04-24 02:00 26.41050 51.83945 34082 ft 431 kts 288°
2026-04-24 02:00 26.43134 51.77706 34087 ft 431 kts 288°
2026-04-24 02:01 26.45225 51.71442 34096 ft 429 kts 287°
2026-04-24 02:01 26.47312 51.65196 34085 ft 429 kts 287°
2026-04-24 02:02 26.49391 51.58961 34090 ft 429 kts 287°
2026-04-24 02:02 26.51459 51.52746 34090 ft 429 kts 287°
2026-04-24 02:03 26.54539 51.43470 34085 ft 429 kts 287°
2026-04-24 02:03 26.56611 51.37217 34106 ft 429 kts 287°
2026-04-24 02:04 26.58677 51.30975 34081 ft 428 kts 286°
2026-04-24 02:04 26.60743 51.24732 34092 ft 428 kts 286°
2026-04-24 02:05 26.62799 51.18522 34086 ft 428 kts 286°
2026-04-24 02:05 26.64865 51.12274 34096 ft 428 kts 286°
2026-04-24 02:06 26.66929 51.06019 34084 ft 428 kts 286°
2026-04-24 02:06 26.68983 50.99762 34093 ft 428 kts 285°
2026-04-24 02:07 26.70999 50.93492 34092 ft 428 kts 285°
2026-04-24 02:07 26.73005 50.87201 34092 ft 428 kts 285°
2026-04-24 02:08 26.75005 50.80928 34092 ft 428 kts 285°
2026-04-24 02:08 26.76992 50.74693 34103 ft 428 kts 285°
2026-04-24 02:09 26.79023 50.68425 34100 ft 429 kts 288°
2026-04-24 02:09 26.82023 50.62585 34114 ft 438 kts 301°
2026-04-24 02:10 26.85125 50.58104 34108 ft 438 kts 303°
2026-04-24 02:10 26.89636 50.51957 34119 ft 438 kts 303°
2026-04-24 02:11 26.92951 50.47585 34120 ft 440 kts 306°
2026-04-24 02:11 26.97151 50.42561 34130 ft 442 kts 307°
2026-04-24 02:12 27.01378 50.37631 34128 ft 440 kts 307°
2026-04-24 02:12 27.05599 50.32653 34128 ft 440 kts 307°
2026-04-24 02:13 27.09775 50.27632 34123 ft 439 kts 306°
2026-04-24 02:13 27.13931 50.22599 34134 ft 439 kts 306°
2026-04-24 02:14 27.18512 50.18026 34124 ft 446 kts 315°
2026-04-24 02:14 27.23482 50.13819 34129 ft 448 kts 316°
2026-04-24 02:15 27.28526 50.09678 34130 ft 449 kts 316°
2026-04-24 02:15 27.33573 50.05536 34129 ft 449 kts 316°
2026-04-24 02:16 27.38572 50.01331 34129 ft 447 kts 315°
2026-04-24 02:16 27.43468 49.97026 34128 ft 447 kts 314°
2026-04-24 02:17 27.48326 49.92718 34128 ft 448 kts 314°
2026-04-24 02:17 27.53233 49.88380 34126 ft 448 kts 314°
2026-04-24 02:18 27.58147 49.84045 34131 ft 448 kts 314°
2026-04-24 02:18 27.63050 49.79718 34128 ft 448 kts 314°
2026-04-24 02:19 27.67957 49.75382 34133 ft 448 kts 314°
2026-04-24 02:19 27.72853 49.71052 34135 ft 446 kts 314°
2026-04-24 02:20 27.77733 49.66728 34127 ft 446 kts 314°
2026-04-24 02:20 27.82576 49.62415 34127 ft 445 kts 314°
2026-04-24 02:21 27.87442 49.58067 34133 ft 445 kts 314°
2026-04-24 02:21 27.92295 49.53725 34130 ft 445 kts 314°
2026-04-24 02:22 27.97155 49.49375 34133 ft 445 kts 313°
2026-04-24 02:22 28.02010 49.45023 34143 ft 446 kts 313°
2026-04-24 02:23 28.06860 49.40630 34130 ft 445 kts 313°
2026-04-24 02:23 28.11652 49.36253 34130 ft 445 kts 313°
2026-04-24 02:24 28.16480 49.31836 34130 ft 445 kts 313°
2026-04-24 02:24 28.21309 49.27418 34131 ft 445 kts 313°
2026-04-24 02:25 28.26132 49.23004 34130 ft 445 kts 313°
2026-04-24 02:25 28.30915 49.18620 34130 ft 445 kts 313°
2026-04-24 02:26 28.35734 49.14199 34145 ft 445 kts 313°
2026-04-24 02:26 28.40665 49.09884 34133 ft 450 kts 316°
2026-04-24 02:27 28.45834 49.05841 34127 ft 451 kts 317°
2026-04-24 02:27 28.51044 49.01853 34127 ft 451 kts 317°
2026-04-24 02:28 28.56262 48.97865 34131 ft 451 kts 317°
2026-04-24 02:28 28.61440 48.93892 34130 ft 451 kts 317°
2026-04-24 02:29 28.66644 48.89889 34127 ft 451 kts 317°
2026-04-24 02:29 28.71848 48.85880 34131 ft 451 kts 316°
2026-04-24 02:30 28.77042 48.81874 34125 ft 450 kts 316°
2026-04-24 02:30 28.82203 48.77895 34124 ft 450 kts 316°
2026-04-24 02:31 28.87401 48.73912 34152 ft 450 kts 316°
2026-04-24 02:31 28.92599 48.69934 34123 ft 448 kts 316°
2026-04-24 02:32 28.97763 48.65973 34123 ft 447 kts 316°
2026-04-24 02:32 29.02907 48.62017 34119 ft 449 kts 316°
2026-04-24 02:33 29.08098 48.58019 34127 ft 450 kts 316°
2026-04-24 02:33 29.13294 48.54017 34119 ft 450 kts 316°
2026-04-24 02:34 29.18498 48.50004 34116 ft 450 kts 316°
2026-04-24 02:34 29.23660 48.46017 34118 ft 449 kts 316°
2026-04-24 02:35 29.28862 48.41997 34117 ft 448 kts 316°
2026-04-24 02:35 29.33993 48.38021 34118 ft 449 kts 316°
2026-04-24 02:36 29.39176 48.34002 34128 ft 449 kts 316°
2026-04-24 02:36 29.44365 48.30029 34114 ft 448 kts 318°
2026-04-24 02:37 29.49758 48.26377 34114 ft 451 kts 320°
2026-04-24 02:37 29.55252 48.22837 34139 ft 452 kts 320°
2026-04-24 02:38 29.60677 48.19323 34110 ft 448 kts 320°
2026-04-24 02:38 29.66094 48.15768 34112 ft 447 kts 319°
2026-04-24 02:39 29.71486 48.12203 34107 ft 447 kts 319°
2026-04-24 02:39 29.76882 48.08631 34106 ft 446 kts 319°
2026-04-24 02:40 29.82231 48.05090 34109 ft 445 kts 319°
2026-04-24 02:40 29.87609 48.01524 34107 ft 445 kts 319°
2026-04-24 02:41 29.92988 47.97953 34110 ft 446 kts 319°
2026-04-24 02:41 29.98369 47.94377 34108 ft 446 kts 319°
2026-04-24 02:42 30.03232 47.90211 34108 ft 425 kts 305°
2026-04-24 02:42 30.07218 47.85267 34113 ft 421 kts 302°
2026-04-24 02:43 30.11059 47.80135 34106 ft 422 kts 301°
2026-04-24 02:43 30.14879 47.74972 34108 ft 423 kts 301°
2026-04-24 02:44 30.18709 47.69822 34106 ft 423 kts 301°
2026-04-24 02:44 30.22565 47.64656 34106 ft 424 kts 302°
2026-04-24 02:45 30.26426 47.59483 34105 ft 425 kts 302°
2026-04-24 02:45 30.30273 47.54322 34105 ft 426 kts 302°
2026-04-24 02:46 30.34155 47.49106 34111 ft 427 kts 302°
2026-04-24 02:46 30.38034 47.43886 34105 ft 428 kts 302°
2026-04-24 02:47 30.41896 47.38682 34103 ft 428 kts 302°
2026-04-24 02:47 30.45786 47.33435 34103 ft 428 kts 302°
2026-04-24 02:48 30.49671 47.28187 34105 ft 429 kts 301°
2026-04-24 02:48 30.53564 47.22918 34105 ft 430 kts 301°
2026-04-24 02:49 30.57727 47.17868 34108 ft 440 kts 309°
2026-04-24 02:49 30.62433 47.13296 34108 ft 442 kts 311°
2026-04-24 02:50 30.67214 47.08845 34112 ft 443 kts 311°
2026-04-24 02:50 30.72036 47.04375 34107 ft 443 kts 311°
2026-04-24 02:51 30.76841 46.99894 34116 ft 443 kts 311°
2026-04-24 02:51 30.81653 46.95385 34107 ft 444 kts 311°
2026-04-24 02:52 30.86441 46.90889 34107 ft 445 kts 311°
2026-04-24 02:52 30.91263 46.86357 34123 ft 445 kts 310°
2026-04-24 02:53 30.96083 46.81822 34116 ft 446 kts 310°
2026-04-24 02:53 31.00912 46.77271 34107 ft 446 kts 310°
2026-04-24 02:54 31.04927 46.73483 34147 ft 446 kts 310°
2026-04-24 02:54 31.10524 46.68199 34116 ft 443 kts 310°
2026-04-24 02:55 31.14540 46.64401 34114 ft 443 kts 310°
2026-04-24 02:55 31.19302 46.59889 34119 ft 443 kts 310°
2026-04-24 02:56 31.24073 46.55375 34121 ft 439 kts 309°
2026-04-24 02:56 31.28823 46.50874 34125 ft 439 kts 309°
2026-04-24 02:57 31.33563 46.46352 34127 ft 439 kts 309°
2026-04-24 02:57 31.38299 46.41838 34127 ft 437 kts 309°
2026-04-24 02:58 31.43000 46.37357 34130 ft 435 kts 309°
2026-04-24 02:58 31.47674 46.32890 34133 ft 436 kts 309°
2026-04-24 02:59 31.52384 46.28384 34137 ft 436 kts 309°
2026-04-24 02:59 31.57077 46.23895 34136 ft 435 kts 309°
2026-04-24 03:00 31.61732 46.19432 34138 ft 435 kts 309°
2026-04-24 03:00 31.66414 46.14938 34140 ft 433 kts 309°
2026-04-24 03:01 31.71081 46.10454 34142 ft 432 kts 309°
2026-04-24 03:01 31.75723 46.05974 34142 ft 431 kts 309°
2026-04-24 03:02 31.80312 46.01449 34146 ft 430 kts 309°
2026-04-24 03:02 31.84850 45.96935 34153 ft 430 kts 309°
2026-04-24 03:03 31.89422 45.92384 34141 ft 430 kts 309°
2026-04-24 03:03 31.93986 45.87843 34144 ft 430 kts 309°
2026-04-24 03:04 31.98562 45.83288 34144 ft 430 kts 309°
2026-04-24 03:04 32.03139 45.78726 34144 ft 430 kts 309°
2026-04-24 03:05 32.07714 45.74161 34144 ft 431 kts 309°
2026-04-24 03:05 32.12256 45.69621 34144 ft 431 kts 309°
2026-04-24 03:06 32.16832 45.65041 34144 ft 431 kts 309°
2026-04-24 03:06 32.21408 45.60455 34144 ft 431 kts 309°
2026-04-24 03:07 32.25995 45.55853 34148 ft 431 kts 309°
2026-04-24 03:07 32.30570 45.51254 34150 ft 432 kts 309°
2026-04-24 03:08 32.37410 45.44368 34147 ft 433 kts 310°
2026-04-24 03:09 32.41998 45.39741 34147 ft 433 kts 310°
2026-04-24 03:09 32.46589 45.35106 34154 ft 433 kts 310°
2026-04-24 03:10 32.51151 45.30492 34155 ft 434 kts 310°
2026-04-24 03:10 32.55872 45.25966 34152 ft 440 kts 315°
2026-04-24 03:11 32.60937 45.21817 34150 ft 442 kts 316°
2026-04-24 03:11 32.66066 45.17746 34153 ft 444 kts 317°
2026-04-24 03:12 32.71223 45.13706 34151 ft 444 kts 317°
2026-04-24 03:12 32.76331 45.09650 34156 ft 444 kts 317°
2026-04-24 03:13 32.81478 45.05546 34148 ft 445 kts 317°
2026-04-24 03:13 32.86614 45.01447 34170 ft 445 kts 317°
2026-04-24 03:14 32.91766 44.97332 34149 ft 446 kts 318°
2026-04-24 03:14 32.96904 44.93223 34146 ft 447 kts 318°
2026-04-24 03:15 33.02066 44.89091 34145 ft 447 kts 318°
2026-04-24 03:15 33.07237 44.84946 34143 ft 447 kts 318°
2026-04-24 03:16 33.12412 44.80790 34147 ft 447 kts 318°
2026-04-24 03:16 33.17541 44.76666 34136 ft 447 kts 318°
2026-04-24 03:17 33.23110 44.73153 34142 ft 462 kts 333°
2026-04-24 03:17 33.29345 44.70987 34140 ft 468 kts 338°
2026-04-24 03:18 33.35655 44.69137 34136 ft 470 kts 339°
2026-04-24 03:18 33.42018 44.67318 34131 ft 469 kts 339°
2026-04-24 03:19 33.48365 44.65472 34139 ft 469 kts 338°
2026-04-24 03:19 33.54712 44.63599 34134 ft 469 kts 338°
2026-04-24 03:20 33.61010 44.61731 34134 ft 468 kts 338°
2026-04-24 03:20 33.67331 44.59856 34130 ft 467 kts 338°
2026-04-24 03:21 33.73654 44.57976 34133 ft 467 kts 338°
2026-04-24 03:21 33.79925 44.56109 34133 ft 467 kts 338°
2026-04-24 03:22 33.86235 44.54229 34133 ft 466 kts 339°
2026-04-24 03:22 33.92529 44.52352 34133 ft 466 kts 338°
2026-04-24 03:23 33.98783 44.50482 34130 ft 466 kts 338°
2026-04-24 03:23 34.05117 44.48585 34133 ft 466 kts 338°
2026-04-24 03:24 34.11373 44.46708 34131 ft 466 kts 338°
2026-04-24 03:24 34.17673 44.44816 34127 ft 466 kts 338°
2026-04-24 03:25 34.23973 44.42921 34130 ft 466 kts 338°
2026-04-24 03:25 34.30224 44.41039 34135 ft 465 kts 338°
2026-04-24 03:26 34.36518 44.39139 34133 ft 466 kts 338°
2026-04-24 03:26 34.42820 44.37235 34130 ft 467 kts 338°
2026-04-24 03:27 34.49132 44.35325 34134 ft 466 kts 338°
2026-04-24 03:27 34.55421 44.33420 34130 ft 466 kts 338°
2026-04-24 03:28 34.61710 44.31511 34129 ft 466 kts 338°
2026-04-24 03:28 34.68001 44.29598 34149 ft 466 kts 338°
2026-04-24 03:29 34.74288 44.27684 34132 ft 465 kts 338°
2026-04-24 03:29 34.80586 44.25763 34128 ft 465 kts 338°
2026-04-24 03:30 34.86825 44.23856 34133 ft 466 kts 338°
2026-04-24 03:30 34.93111 44.21933 34136 ft 465 kts 338°
2026-04-24 03:31 34.99377 44.20014 34129 ft 464 kts 338°
2026-04-24 03:31 35.05649 44.18088 34127 ft 465 kts 338°
2026-04-24 03:32 35.11927 44.16158 34140 ft 465 kts 338°
2026-04-24 03:32 35.18186 44.14231 34126 ft 464 kts 338°
2026-04-24 03:33 35.24454 44.12298 34132 ft 464 kts 338°
2026-04-24 03:33 35.30712 44.10364 34130 ft 464 kts 338°
2026-04-24 03:34 35.36934 44.08440 34129 ft 463 kts 338°
2026-04-24 03:34 35.43196 44.06499 34124 ft 464 kts 338°
2026-04-24 03:35 35.49470 44.04552 34124 ft 464 kts 338°
2026-04-24 03:35 35.55722 44.02609 34136 ft 464 kts 338°
2026-04-24 03:36 35.61982 44.00659 34128 ft 464 kts 338°
2026-04-24 03:36 35.68252 43.98704 34127 ft 465 kts 338°
2026-04-24 03:37 35.74475 43.96760 34148 ft 465 kts 338°
2026-04-24 03:37 35.80745 43.94798 34128 ft 464 kts 338°
2026-04-24 03:38 35.87021 43.92831 34131 ft 465 kts 338°
2026-04-24 03:38 35.93301 43.90859 34131 ft 465 kts 338°
2026-04-24 03:39 35.99585 43.88883 34136 ft 465 kts 338°
2026-04-24 03:39 36.05829 43.86917 34135 ft 466 kts 338°
2026-04-24 03:40 36.12122 43.84930 34132 ft 467 kts 338°
2026-04-24 03:40 36.18433 43.82937 34127 ft 467 kts 338°
2026-04-24 03:41 36.23674 43.81279 34128 ft 468 kts 338°
2026-04-24 03:41 36.29825 43.78844 34131 ft 461 kts 331°
2026-04-24 03:42 36.35769 43.75874 34147 ft 459 kts 329°
2026-04-24 03:42 36.41681 43.72797 34147 ft 461 kts 329°
2026-04-24 03:43 36.47554 43.69724 34136 ft 461 kts 329°
2026-04-24 03:43 36.53487 43.66630 34143 ft 461 kts 329°
2026-04-24 03:44 36.59326 43.63588 34157 ft 462 kts 329°
2026-04-24 03:44 36.65264 43.60490 34174 ft 462 kts 329°
2026-04-24 03:45 36.71157 43.57412 34160 ft 462 kts 329°
2026-04-24 03:45 36.77067 43.54273 34181 ft 461 kts 328°
2026-04-24 03:46 36.82923 43.51010 34184 ft 460 kts 328°
2026-04-24 03:46 36.88755 43.47726 34184 ft 460 kts 328°
2026-04-24 03:47 36.94598 43.44442 34186 ft 460 kts 328°
2026-04-24 03:47 37.00443 43.41163 34194 ft 459 kts 328°
2026-04-24 03:48 37.06236 43.37911 34201 ft 459 kts 328°
2026-04-24 03:48 37.12071 43.34628 34202 ft 459 kts 328°
2026-04-24 03:49 37.17894 43.31348 34210 ft 458 kts 328°
2026-04-24 03:49 37.23704 43.28070 34213 ft 457 kts 328°
2026-04-24 03:50 37.29480 43.24750 34228 ft 453 kts 324°
2026-04-24 03:50 37.34495 43.20311 34210 ft 436 kts 309°
2026-04-24 03:51 37.38124 43.14388 34210 ft 424 kts 295°
2026-04-24 03:51 37.40996 43.07915 34225 ft 422 kts 292°
2026-04-24 03:52 37.43720 43.01396 34204 ft 420 kts 292°
2026-04-24 03:52 37.46438 42.94899 34202 ft 419 kts 292°
2026-04-24 03:53 37.49156 42.88457 34194 ft 419 kts 292°
2026-04-24 03:53 37.51901 42.81971 34183 ft 419 kts 292°
2026-04-24 03:54 37.54642 42.75491 34183 ft 419 kts 292°
2026-04-24 03:54 37.57380 42.68998 34193 ft 419 kts 292°
2026-04-24 03:55 37.60102 42.62538 34185 ft 419 kts 292°
2026-04-24 03:55 37.62831 42.56060 34176 ft 418 kts 292°
2026-04-24 03:56 37.65555 42.49579 34170 ft 418 kts 292°
2026-04-24 03:56 37.68276 42.43092 34162 ft 418 kts 292°
2026-04-24 03:57 37.70992 42.36600 34150 ft 417 kts 292°
2026-04-24 03:57 37.73702 42.30103 34145 ft 418 kts 292°
2026-04-24 03:58 37.76416 42.23602 34136 ft 418 kts 292°
2026-04-24 03:58 37.79108 42.17138 34133 ft 418 kts 292°
2026-04-24 03:59 37.81807 42.10633 34132 ft 418 kts 292°
2026-04-24 03:59 37.84511 42.04102 34132 ft 418 kts 292°
2026-04-24 04:00 37.87212 41.97572 34126 ft 419 kts 292°
2026-04-24 04:00 37.89920 41.91045 34122 ft 420 kts 294°
2026-04-24 04:01 37.93358 41.84973 34119 ft 428 kts 303°
2026-04-24 04:01 37.97252 41.79241 34117 ft 430 kts 304°
2026-04-24 04:02 38.01229 41.73572 34115 ft 429 kts 305°
2026-04-24 04:02 38.05175 41.67937 34117 ft 430 kts 305°
2026-04-24 04:03 38.09134 41.62245 34116 ft 430 kts 304°
2026-04-24 04:03 38.13087 41.56538 34106 ft 429 kts 304°
2026-04-24 04:04 38.17021 41.50843 34123 ft 428 kts 304°
2026-04-24 04:04 38.20920 41.45189 34106 ft 428 kts 304°
2026-04-24 04:05 38.24844 41.39488 34121 ft 427 kts 304°
2026-04-24 04:05 38.28756 41.33799 34119 ft 426 kts 304°
2026-04-24 04:06 38.32661 41.28105 34119 ft 426 kts 304°
2026-04-24 04:06 38.36502 41.22499 34134 ft 426 kts 304°
2026-04-24 04:07 38.40365 41.16852 34122 ft 425 kts 304°
2026-04-24 04:07 38.44250 41.11157 34122 ft 425 kts 304°
2026-04-24 04:08 38.48107 41.05437 34138 ft 424 kts 303°
2026-04-24 04:08 38.51895 40.99659 34123 ft 424 kts 303°
2026-04-24 04:09 38.55664 40.93866 34118 ft 424 kts 303°
2026-04-24 04:09 38.59420 40.88094 34120 ft 425 kts 303°
2026-04-24 04:10 38.63198 40.82303 34117 ft 423 kts 303°
2026-04-24 04:10 38.66998 40.76545 34118 ft 423 kts 303°
2026-04-24 04:11 38.72707 40.67933 34133 ft 423 kts 303°
2026-04-24 04:11 38.76510 40.62177 34119 ft 423 kts 303°
2026-04-24 04:12 38.80306 40.56412 34110 ft 423 kts 303°
2026-04-24 04:12 38.84106 40.50634 34105 ft 423 kts 303°
2026-04-24 04:13 38.87876 40.44890 34102 ft 424 kts 303°
2026-04-24 04:13 38.91679 40.39088 34098 ft 425 kts 303°
2026-04-24 04:14 38.95480 40.33274 34093 ft 424 kts 303°
2026-04-24 04:14 38.99274 40.27461 34082 ft 424 kts 303°
2026-04-24 04:15 39.03066 40.21644 34082 ft 423 kts 302°
2026-04-24 04:15 39.06822 40.15868 34074 ft 423 kts 302°
2026-04-24 04:16 39.10597 40.10050 34097 ft 423 kts 302°
2026-04-24 04:16 39.14367 40.04232 34071 ft 423 kts 302°
2026-04-24 04:17 39.18142 39.98397 34086 ft 423 kts 302°
2026-04-24 04:17 39.21903 39.92568 34091 ft 423 kts 302°
2026-04-24 04:18 39.25653 39.86745 34070 ft 420 kts 302°
2026-04-24 04:18 39.29357 39.80979 34067 ft 420 kts 302°
2026-04-24 04:19 39.33086 39.75162 34062 ft 420 kts 302°
2026-04-24 04:19 39.36807 39.69350 34077 ft 419 kts 302°
2026-04-24 04:20 39.40502 39.63571 34081 ft 420 kts 302°
2026-04-24 04:20 39.44219 39.57741 34102 ft 420 kts 302°
2026-04-24 04:21 39.47919 39.51931 34116 ft 420 kts 302°
2026-04-24 04:21 39.51627 39.46088 34131 ft 420 kts 302°
2026-04-24 04:22 39.55307 39.40194 34135 ft 419 kts 301°
2026-04-24 04:22 39.58966 39.34287 34148 ft 419 kts 301°
2026-04-24 04:23 39.62583 39.28442 34124 ft 417 kts 301°
2026-04-24 04:23 39.66215 39.22568 34125 ft 417 kts 301°
2026-04-24 04:24 39.69840 39.16693 34138 ft 417 kts 301°
2026-04-24 04:24 39.73476 39.10811 34155 ft 417 kts 301°
2026-04-24 04:25 39.77145 39.04954 34164 ft 417 kts 302°
2026-04-24 04:25 39.80795 38.99149 34164 ft 416 kts 302°
2026-04-24 04:26 39.84457 38.93302 34192 ft 417 kts 301°
2026-04-24 04:26 39.88115 38.87447 34182 ft 417 kts 301°
2026-04-24 04:27 39.91179 38.82532 34181 ft 418 kts 301°
2026-04-24 04:27 39.94826 38.76671 34184 ft 418 kts 301°
2026-04-24 04:28 39.98484 38.70780 34189 ft 418 kts 301°
2026-04-24 04:28 40.02146 38.64871 34182 ft 419 kts 301°
2026-04-24 04:29 40.05811 38.58949 34184 ft 419 kts 301°
2026-04-24 04:29 40.09449 38.53059 34211 ft 419 kts 301°
2026-04-24 04:30 40.13102 38.47134 34193 ft 419 kts 301°
2026-04-24 04:30 40.16758 38.41190 34193 ft 419 kts 301°
2026-04-24 04:31 40.20416 38.35232 34190 ft 419 kts 301°
2026-04-24 04:31 40.24061 38.29287 34194 ft 419 kts 301°
2026-04-24 04:32 40.27703 38.23334 34192 ft 419 kts 301°
2026-04-24 04:32 40.31304 38.17342 34199 ft 415 kts 297°
2026-04-24 04:33 40.34011 38.10821 34192 ft 404 kts 287°
2026-04-24 04:33 40.36141 38.04081 34189 ft 402 kts 285°
2026-04-24 04:34 40.38180 37.97232 34194 ft 403 kts 285°
2026-04-24 04:34 40.40213 37.90370 34185 ft 404 kts 285°
2026-04-24 04:35 40.42263 37.83494 34189 ft 404 kts 285°
2026-04-24 04:35 40.44316 37.76621 34186 ft 403 kts 285°
2026-04-24 04:36 40.46361 37.69758 34188 ft 403 kts 285°
2026-04-24 04:36 40.48390 37.62933 34189 ft 403 kts 285°
2026-04-24 04:37 40.50430 37.56061 34193 ft 403 kts 285°
2026-04-24 04:37 40.52451 37.49226 34194 ft 403 kts 285°
2026-04-24 04:38 40.54485 37.42336 34194 ft 404 kts 285°
2026-04-24 04:38 40.56502 37.35484 34198 ft 404 kts 285°
2026-04-24 04:39 40.58527 37.28581 34199 ft 404 kts 285°
2026-04-24 04:39 40.60550 37.21667 34201 ft 406 kts 285°
2026-04-24 04:40 40.62581 37.14706 34201 ft 408 kts 285°
2026-04-24 04:40 40.64620 37.07712 34201 ft 408 kts 285°
2026-04-24 04:41 40.66639 37.00764 34194 ft 408 kts 285°
2026-04-24 04:41 40.68667 36.93764 34191 ft 409 kts 285°
2026-04-24 04:42 40.70702 36.86714 34191 ft 411 kts 285°
2026-04-24 04:42 40.72736 36.79657 34187 ft 411 kts 285°
2026-04-24 04:43 40.74767 36.72593 34186 ft 411 kts 285°
2026-04-24 04:43 40.76790 36.65544 34198 ft 412 kts 286°
2026-04-24 04:44 40.78804 36.58461 34188 ft 416 kts 286°
2026-04-24 04:44 40.80845 36.51306 34188 ft 416 kts 286°
2026-04-24 04:45 40.82886 36.44139 34179 ft 416 kts 286°
2026-04-24 04:45 40.84903 36.37028 34178 ft 416 kts 286°
2026-04-24 04:46 40.86936 36.29833 34172 ft 418 kts 286°
2026-04-24 04:46 40.88971 36.22614 34159 ft 419 kts 286°
2026-04-24 04:47 40.91002 36.15390 34159 ft 419 kts 286°
2026-04-24 04:47 40.93015 36.08208 34162 ft 419 kts 286°
2026-04-24 04:48 40.95044 36.00949 34159 ft 422 kts 286°
2026-04-24 04:48 40.97079 35.93650 34155 ft 422 kts 286°
2026-04-24 04:49 40.99109 35.86352 34146 ft 422 kts 286°
2026-04-24 04:49 41.01133 35.79048 34157 ft 423 kts 286°
2026-04-24 04:50 41.03153 35.71725 34154 ft 427 kts 287°
2026-04-24 04:50 41.05196 35.64323 34151 ft 427 kts 287°
2026-04-24 04:51 41.07233 35.56923 34152 ft 427 kts 286°
2026-04-24 04:51 41.09264 35.49519 34139 ft 428 kts 287°
2026-04-24 04:52 41.11297 35.42076 34156 ft 429 kts 287°
2026-04-24 04:52 41.13316 35.34668 34154 ft 429 kts 287°
2026-04-24 04:53 41.15346 35.27198 34158 ft 429 kts 286°
2026-04-24 04:53 41.17370 35.19728 34156 ft 429 kts 286°
2026-04-24 04:54 41.19385 35.12264 34160 ft 429 kts 286°
2026-04-24 04:54 41.21395 35.04800 34164 ft 429 kts 286°
2026-04-24 04:55 41.23399 34.97334 34161 ft 429 kts 286°
2026-04-24 04:55 41.25402 34.89854 34167 ft 430 kts 287°
2026-04-24 04:56 41.27396 34.82375 34168 ft 433 kts 287°
2026-04-24 04:56 41.29405 34.74826 34174 ft 433 kts 287°
2026-04-24 04:57 41.31415 34.67272 34174 ft 433 kts 287°
2026-04-24 04:57 41.33424 34.59694 34176 ft 433 kts 287°
2026-04-24 04:58 41.35413 34.52164 34179 ft 434 kts 287°
2026-04-24 04:58 41.37407 34.44595 34172 ft 434 kts 287°
2026-04-24 04:59 41.39398 34.37010 34179 ft 433 kts 287°
2026-04-24 04:59 41.41378 34.29422 34186 ft 434 kts 287°
2026-04-24 05:00 41.43351 34.21796 34168 ft 435 kts 287°
2026-04-24 05:00 41.45303 34.14221 34185 ft 434 kts 287°
2026-04-24 05:01 41.47279 34.06555 34186 ft 435 kts 287°
2026-04-24 05:01 41.49233 33.98962 34177 ft 436 kts 287°
2026-04-24 05:02 41.51201 33.91290 34180 ft 438 kts 287°
2026-04-24 05:02 41.53169 33.83596 34182 ft 438 kts 287°
2026-04-24 05:03 41.55133 33.75890 34181 ft 438 kts 287°
2026-04-24 05:03 41.57055 33.68336 34182 ft 437 kts 287°
2026-04-24 05:04 41.59004 33.60635 34175 ft 437 kts 287°
2026-04-24 05:04 41.60936 33.52991 34177 ft 437 kts 287°
2026-04-24 05:05 41.62873 33.45292 34180 ft 437 kts 287°
2026-04-24 05:05 41.64801 33.37601 34173 ft 436 kts 287°
2026-04-24 05:06 41.66721 33.29914 34172 ft 435 kts 287°
2026-04-24 05:06 41.68638 33.22218 34167 ft 435 kts 287°
2026-04-24 05:07 41.70549 33.14519 34165 ft 435 kts 287°
2026-04-24 05:07 41.72437 33.06887 34163 ft 435 kts 287°
2026-04-24 05:08 41.74296 32.99355 34159 ft 435 kts 287°
2026-04-24 05:08 41.76191 32.91652 34161 ft 435 kts 287°
2026-04-24 05:09 41.78079 32.83953 34149 ft 435 kts 287°
2026-04-24 05:09 41.79954 32.76282 34151 ft 435 kts 287°
2026-04-24 05:10 41.81833 32.68557 34152 ft 436 kts 287°
2026-04-24 05:10 41.83706 32.60833 34152 ft 435 kts 287°
2026-04-24 05:11 41.85260 32.54407 34151 ft 435 kts 287°
2026-04-24 05:11 41.87125 32.46667 34152 ft 436 kts 287°
2026-04-24 05:12 41.88977 32.38917 34153 ft 436 kts 287°
2026-04-24 05:12 41.90830 32.31165 34152 ft 436 kts 287°
2026-04-24 05:13 41.93614 32.19563 34152 ft 436 kts 287°
2026-04-24 05:14 41.95459 32.11794 34148 ft 436 kts 287°
2026-04-24 05:14 41.97296 32.04017 34149 ft 436 kts 287°
2026-04-24 05:15 41.99125 31.96250 34150 ft 436 kts 287°
2026-04-24 05:15 42.00952 31.88470 34150 ft 436 kts 287°
2026-04-24 05:16 42.02776 31.80688 34149 ft 436 kts 287°
2026-04-24 05:16 42.04597 31.72899 34144 ft 436 kts 287°
2026-04-24 05:17 42.06412 31.65107 34143 ft 436 kts 287°
2026-04-24 05:17 42.08223 31.57306 34143 ft 436 kts 287°
2026-04-24 05:18 42.10014 31.49562 34144 ft 436 kts 287°
2026-04-24 05:18 42.11812 31.41765 34141 ft 435 kts 287°
2026-04-24 05:19 42.13603 31.33962 34137 ft 435 kts 287°
2026-04-24 05:19 42.15388 31.26163 34139 ft 435 kts 287°
2026-04-24 05:20 42.17167 31.18360 34137 ft 436 kts 287°
2026-04-24 05:20 42.18906 31.10706 34135 ft 436 kts 287°
2026-04-24 05:21 42.20688 31.02834 34135 ft 436 kts 287°
2026-04-24 05:21 42.22454 30.95010 34132 ft 436 kts 287°
2026-04-24 05:22 42.24216 30.87172 34129 ft 436 kts 287°
2026-04-24 05:22 42.25970 30.79339 34140 ft 436 kts 287°
2026-04-24 05:23 42.27722 30.71489 34129 ft 436 kts 287°
2026-04-24 05:23 42.29460 30.63675 34131 ft 436 kts 287°
2026-04-24 05:24 42.31201 30.55818 34126 ft 436 kts 287°
2026-04-24 05:24 42.32936 30.47962 34121 ft 436 kts 287°
2026-04-24 05:25 42.34664 30.40105 34119 ft 436 kts 287°
2026-04-24 05:25 42.36387 30.32243 34116 ft 436 kts 287°
2026-04-24 05:26 42.38106 30.24372 34115 ft 436 kts 287°
2026-04-24 05:26 42.39814 30.16522 34124 ft 438 kts 287°
2026-04-24 05:27 42.41532 30.08595 34121 ft 438 kts 287°
2026-04-24 05:27 42.43245 30.00665 34121 ft 438 kts 287°
2026-04-24 05:28 42.44947 29.92771 34123 ft 439 kts 288°
2026-04-24 05:28 42.47439 29.85277 34122 ft 437 kts 303°
2026-04-24 05:29 42.51013 29.78599 34117 ft 438 kts 307°
2026-04-24 05:29 42.54762 29.72171 34111 ft 436 kts 308°
2026-04-24 05:30 42.58554 29.65732 34122 ft 436 kts 308°
2026-04-24 05:30 42.62327 29.59265 34123 ft 436 kts 308°
2026-04-24 05:31 42.66081 29.52781 34123 ft 436 kts 308°
2026-04-24 05:31 42.69834 29.46275 34117 ft 436 kts 308°
2026-04-24 05:32 42.73558 29.39804 34121 ft 437 kts 308°
2026-04-24 05:32 42.77304 29.33284 34121 ft 437 kts 308°
2026-04-24 05:33 42.81036 29.26774 34121 ft 437 kts 308°
2026-04-24 05:33 42.84778 29.20233 34118 ft 437 kts 308°
2026-04-24 05:34 42.90379 29.10414 34120 ft 437 kts 308°
2026-04-24 05:34 42.94085 29.03900 34123 ft 437 kts 308°
2026-04-24 05:35 42.97810 28.97337 34112 ft 437 kts 308°
2026-04-24 05:35 43.01529 28.90771 34120 ft 437 kts 308°
2026-04-24 05:36 43.05258 28.84171 34118 ft 437 kts 308°
2026-04-24 05:36 43.08951 28.77623 34105 ft 437 kts 308°
2026-04-24 05:37 43.12655 28.71039 34101 ft 437 kts 308°
2026-04-24 05:37 43.16381 28.64402 34106 ft 438 kts 308°
2026-04-24 05:38 43.20098 28.57765 34109 ft 438 kts 308°
2026-04-24 05:38 43.23805 28.51131 34100 ft 438 kts 308°
2026-04-24 05:39 43.27506 28.44496 34097 ft 438 kts 308°
2026-04-24 05:39 43.31225 28.37844 34110 ft 438 kts 308°
2026-04-24 05:40 43.34891 28.31237 34103 ft 436 kts 308°
2026-04-24 05:40 43.38556 28.24597 34104 ft 436 kts 308°
2026-04-24 05:41 43.42230 28.17934 34100 ft 436 kts 308°
2026-04-24 05:41 43.45908 28.11291 34099 ft 436 kts 308°
2026-04-24 05:42 43.49567 28.04631 34113 ft 436 kts 308°
2026-04-24 05:42 43.53201 27.97997 34112 ft 436 kts 308°
2026-04-24 05:43 43.56867 27.91297 34112 ft 436 kts 308°
2026-04-24 05:43 43.60521 27.84611 34113 ft 436 kts 309°
2026-04-24 05:44 43.64264 27.78088 34112 ft 436 kts 310°
2026-04-24 05:44 43.68114 27.71596 34113 ft 436 kts 311°
2026-04-24 05:45 43.71965 27.65106 34119 ft 436 kts 311°
2026-04-24 05:45 43.75790 27.58595 34116 ft 436 kts 311°
2026-04-24 05:46 43.79577 27.52109 34113 ft 436 kts 311°
2026-04-24 05:46 43.83385 27.45574 34112 ft 436 kts 311°
2026-04-24 05:47 43.87198 27.39020 34114 ft 437 kts 311°
2026-04-24 05:47 43.91010 27.32456 34115 ft 438 kts 311°
2026-04-24 05:48 43.94827 27.25868 34111 ft 438 kts 311°
2026-04-24 05:48 43.98639 27.19271 34111 ft 438 kts 311°
2026-04-24 05:49 44.02430 27.12698 34112 ft 439 kts 311°
2026-04-24 05:49 44.06253 27.06054 34115 ft 440 kts 311°
2026-04-24 05:50 44.10071 26.99403 34115 ft 440 kts 311°
2026-04-24 05:50 44.13890 26.92736 34115 ft 440 kts 311°
2026-04-24 05:51 44.17708 26.86055 34116 ft 441 kts 311°
2026-04-24 05:51 44.21529 26.79352 34116 ft 442 kts 311°
2026-04-24 05:52 44.25331 26.72667 34118 ft 442 kts 311°
2026-04-24 05:52 44.29147 26.65941 34117 ft 442 kts 311°
2026-04-24 05:53 44.32967 26.59194 34115 ft 442 kts 311°
2026-04-24 05:53 44.36776 26.52451 34112 ft 442 kts 311°
2026-04-24 05:54 44.40582 26.45695 34113 ft 442 kts 311°
2026-04-24 05:54 44.44380 26.38939 34103 ft 442 kts 311°
2026-04-24 05:55 44.48157 26.32224 34114 ft 440 kts 312°
2026-04-24 05:55 44.51944 26.25467 34112 ft 440 kts 312°
2026-04-24 05:56 44.55036 26.19915 34102 ft 440 kts 312°
2026-04-24 05:56 44.58807 26.13134 34102 ft 440 kts 312°
2026-04-24 05:57 44.62576 26.06348 34102 ft 441 kts 312°
2026-04-24 05:57 44.66343 25.99556 34103 ft 441 kts 312°
2026-04-24 05:58 44.70113 25.92742 34103 ft 441 kts 312°
2026-04-24 05:58 44.73876 25.85923 34100 ft 441 kts 312°
2026-04-24 05:59 44.77642 25.79081 34099 ft 442 kts 313°
2026-04-24 05:59 44.81402 25.72237 34094 ft 442 kts 313°
2026-04-24 06:00 44.85132 25.65427 34096 ft 440 kts 313°
2026-04-24 06:00 44.88873 25.58583 34098 ft 440 kts 313°
2026-04-24 06:01 44.92606 25.51739 34091 ft 439 kts 314°
2026-04-24 06:01 44.96306 25.44938 34093 ft 439 kts 314°
2026-04-24 06:02 45.00011 25.38112 34096 ft 439 kts 314°
2026-04-24 06:02 45.03730 25.31243 34093 ft 439 kts 313°
2026-04-24 06:03 45.07444 25.24366 34093 ft 440 kts 314°
2026-04-24 06:03 45.11167 25.17458 34095 ft 441 kts 314°
2026-04-24 06:04 45.14885 25.10542 34099 ft 441 kts 314°
2026-04-24 06:04 45.18572 25.03668 34101 ft 441 kts 314°
2026-04-24 06:05 45.22281 24.96734 34096 ft 441 kts 314°
2026-04-24 06:05 45.25987 24.89787 34096 ft 440 kts 314°
2026-04-24 06:06 45.29679 24.82849 34102 ft 440 kts 314°
2026-04-24 06:06 45.33375 24.75890 34102 ft 440 kts 314°
2026-04-24 06:07 45.37039 24.68976 34106 ft 441 kts 314°
2026-04-24 06:07 45.40744 24.61971 34109 ft 443 kts 314°
2026-04-24 06:08 45.44445 24.54949 34115 ft 443 kts 314°
2026-04-24 06:08 45.48144 24.47913 34112 ft 443 kts 314°
2026-04-24 06:09 45.51839 24.40868 34104 ft 444 kts 314°
2026-04-24 06:09 45.55548 24.33784 34115 ft 446 kts 314°
2026-04-24 06:10 45.59240 24.26709 34130 ft 446 kts 314°
2026-04-24 06:11 45.64492 24.15742 34122 ft 450 kts 307°
2026-04-24 06:11 45.67502 24.07856 34125 ft 453 kts 305°
2026-04-24 06:12 45.70424 23.99905 34158 ft 454 kts 305°
2026-04-24 06:12 45.73352 23.91880 34168 ft 454 kts 305°
2026-04-24 06:13 45.76282 23.83854 34141 ft 454 kts 305°
2026-04-24 06:13 45.79212 23.75833 34159 ft 454 kts 305°
2026-04-24 06:14 45.82138 23.67804 34142 ft 454 kts 305°
2026-04-24 06:14 45.85053 23.59777 34154 ft 454 kts 304°
2026-04-24 06:15 45.87969 23.51729 34142 ft 454 kts 304°
2026-04-24 06:15 45.90859 23.43728 34149 ft 454 kts 304°
2026-04-24 06:16 45.93767 23.35648 34153 ft 455 kts 304°
2026-04-24 06:16 45.96670 23.27559 34152 ft 455 kts 304°
2026-04-24 06:17 45.99565 23.19467 34156 ft 455 kts 304°
2026-04-24 06:17 46.02436 23.11416 34157 ft 455 kts 304°
2026-04-24 06:18 46.05334 23.03271 34161 ft 456 kts 304°
2026-04-24 06:18 46.08221 22.95132 34170 ft 456 kts 304°
2026-04-24 06:19 46.11096 22.86993 34167 ft 454 kts 304°
2026-04-24 06:19 46.13936 22.78932 34173 ft 453 kts 304°
2026-04-24 06:20 46.16789 22.70814 34172 ft 454 kts 304°
2026-04-24 06:20 46.19640 22.62675 34171 ft 454 kts 304°
2026-04-24 06:21 46.22463 22.54593 34176 ft 454 kts 304°
2026-04-24 06:21 46.25270 22.46525 34173 ft 454 kts 304°
2026-04-24 06:22 46.28107 22.38351 34176 ft 455 kts 304°
2026-04-24 06:22 46.30941 22.30162 34180 ft 455 kts 304°
2026-04-24 06:23 46.33771 22.21960 34177 ft 455 kts 304°
2026-04-24 06:23 46.36590 22.13759 34178 ft 455 kts 303°
2026-04-24 06:24 46.39389 22.05594 34183 ft 456 kts 303°
2026-04-24 06:24 46.42212 21.97333 34185 ft 456 kts 303°
2026-04-24 06:25 46.45023 21.89081 34193 ft 456 kts 303°
2026-04-24 06:25 46.47830 21.80814 34186 ft 457 kts 303°
2026-04-24 06:26 46.50643 21.72509 34195 ft 458 kts 303°
2026-04-24 06:26 46.53434 21.64236 34194 ft 458 kts 303°
2026-04-24 06:27 46.56232 21.55916 34197 ft 458 kts 303°
2026-04-24 06:27 46.59033 21.47562 34184 ft 459 kts 303°
2026-04-24 06:28 46.61808 21.39261 34205 ft 460 kts 302°
2026-04-24 06:28 46.64599 21.30880 34204 ft 459 kts 302°
2026-04-24 06:29 46.67386 21.22486 34204 ft 459 kts 302°
2026-04-24 06:29 46.70156 21.14119 34177 ft 459 kts 302°
2026-04-24 06:30 46.72897 21.05815 34210 ft 460 kts 302°
2026-04-24 06:30 46.75682 20.97350 34209 ft 461 kts 302°
2026-04-24 06:31 46.78448 20.88908 34211 ft 461 kts 302°
2026-04-24 06:31 46.81210 20.80454 34209 ft 461 kts 302°
2026-04-24 06:32 46.83965 20.71997 34212 ft 462 kts 302°
2026-04-24 06:32 46.86723 20.63501 34214 ft 462 kts 302°
2026-04-24 06:33 46.89475 20.54993 34212 ft 463 kts 302°
2026-04-24 06:33 46.92222 20.46471 34212 ft 463 kts 302°
2026-04-24 06:34 46.94943 20.38004 34216 ft 463 kts 302°
2026-04-24 06:34 46.97677 20.29469 34217 ft 463 kts 301°
2026-04-24 06:35 47.00406 20.20922 34217 ft 463 kts 301°
2026-04-24 06:35 47.03126 20.12371 34224 ft 463 kts 301°
2026-04-24 06:36 47.05847 20.03791 34223 ft 464 kts 301°
2026-04-24 06:36 47.08565 19.95192 34225 ft 464 kts 301°
2026-04-24 06:37 47.11278 19.86580 34209 ft 465 kts 301°
2026-04-24 06:37 47.13984 19.77958 34212 ft 465 kts 301°
2026-04-24 06:38 47.16668 19.69380 34206 ft 465 kts 301°
2026-04-24 06:38 47.19370 19.60714 34213 ft 466 kts 301°
2026-04-24 06:39 47.21613 19.53497 34209 ft 466 kts 301°
2026-04-24 06:39 47.24700 19.43526 34210 ft 467 kts 301°
2026-04-24 06:40 47.27328 19.35010 34213 ft 467 kts 301°
2026-04-24 06:40 47.29581 19.27686 34213 ft 467 kts 301°
2026-04-24 06:41 47.32243 19.19006 34209 ft 468 kts 301°
2026-04-24 06:41 47.34542 19.09992 34207 ft 475 kts 292°
2026-04-24 06:42 47.36275 19.00544 34190 ft 476 kts 290°
2026-04-24 06:42 47.37891 18.91027 34219 ft 478 kts 290°
2026-04-24 06:43 47.39490 18.81497 34223 ft 478 kts 290°
2026-04-24 06:43 47.41050 18.72229 34236 ft 478 kts 290°
2026-04-24 06:44 47.42653 18.62698 34236 ft 478 kts 290°
2026-04-24 06:44 47.44249 18.53173 34242 ft 477 kts 290°
2026-04-24 06:45 47.45836 18.43640 34250 ft 477 kts 290°
2026-04-24 06:45 47.47408 18.34151 34248 ft 477 kts 290°
2026-04-24 06:46 47.48978 18.24615 34262 ft 477 kts 290°
2026-04-24 06:46 47.50541 18.15065 34256 ft 476 kts 290°
2026-04-24 06:47 47.52090 18.05552 34273 ft 475 kts 289°
2026-04-24 06:47 47.53633 17.96027 34279 ft 475 kts 289°
2026-04-24 06:48 47.55166 17.86509 34280 ft 476 kts 289°
2026-04-24 06:48 47.56691 17.76977 34266 ft 475 kts 289°
2026-04-24 06:49 47.58206 17.67457 34268 ft 474 kts 289°
2026-04-24 06:49 47.59703 17.57995 34271 ft 474 kts 289°
2026-04-24 06:50 47.61203 17.48459 34273 ft 474 kts 289°
2026-04-24 06:50 47.62679 17.38901 34284 ft 475 kts 288°
2026-04-24 06:51 47.64020 17.29300 34289 ft 475 kts 287°
2026-04-24 06:51 47.65287 17.19853 34288 ft 475 kts 287°
2026-04-24 06:52 47.66577 17.10231 34288 ft 475 kts 287°
2026-04-24 06:52 47.68091 17.00714 34270 ft 468 kts 296°
2026-04-24 06:53 47.70395 16.91711 34287 ft 465 kts 298°
2026-04-24 06:53 47.72842 16.82817 34288 ft 465 kts 298°
2026-04-24 06:54 47.75311 16.73930 34288 ft 465 kts 298°
2026-04-24 06:54 47.77763 16.65027 34286 ft 465 kts 298°
2026-04-24 06:55 47.80179 16.56175 34281 ft 465 kts 298°
2026-04-24 06:55 47.82602 16.47255 34289 ft 465 kts 298°
2026-04-24 06:56 47.85017 16.38326 34289 ft 465 kts 298°
2026-04-24 06:56 47.87431 16.29371 34290 ft 465 kts 298°
2026-04-24 06:57 47.89836 16.20416 34284 ft 465 kts 298°
2026-04-24 06:57 47.92242 16.11422 34291 ft 465 kts 298°
2026-04-24 06:58 47.94614 16.02517 34289 ft 465 kts 298°
2026-04-24 06:58 47.97002 15.93525 34293 ft 465 kts 297°
2026-04-24 06:59 47.99376 15.84547 34291 ft 464 kts 297°
2026-04-24 06:59 48.01733 15.75596 34304 ft 463 kts 297°
2026-04-24 07:00 48.04059 15.66604 34306 ft 465 kts 294°
2026-04-24 07:00 48.05888 15.57279 34313 ft 468 kts 291°
2026-04-24 07:01 48.07590 15.47868 34310 ft 469 kts 290°
2026-04-24 07:01 48.09245 15.38505 34317 ft 468 kts 290°
2026-04-24 07:02 48.10909 15.29074 34324 ft 468 kts 290°
2026-04-24 07:02 48.12571 15.19659 34320 ft 468 kts 290°
2026-04-24 07:03 48.14229 15.10226 34334 ft 468 kts 290°
2026-04-24 07:03 48.15880 15.00783 34340 ft 469 kts 290°
2026-04-24 07:04 48.17498 14.91475 34339 ft 469 kts 290°
2026-04-24 07:04 48.19134 14.82016 34345 ft 469 kts 290°
2026-04-24 07:05 48.20753 14.72604 34347 ft 469 kts 290°
2026-04-24 07:05 48.22374 14.63133 34348 ft 469 kts 289°
2026-04-24 07:06 48.23994 14.53616 34351 ft 470 kts 289°
2026-04-24 07:06 48.25603 14.44110 34345 ft 470 kts 289°
2026-04-24 07:07 48.27204 14.34598 34348 ft 470 kts 289°
2026-04-24 07:07 48.29593 14.20298 34345 ft 471 kts 289°
2026-04-24 07:08 48.31168 14.10808 34351 ft 471 kts 289°
2026-04-24 07:08 48.32746 14.01248 34355 ft 471 kts 289°
2026-04-24 07:09 48.34317 13.91678 34358 ft 471 kts 289°
2026-04-24 07:09 48.35882 13.82093 34358 ft 472 kts 288°
2026-04-24 07:10 48.37431 13.72549 34359 ft 472 kts 288°
2026-04-24 07:10 48.38989 13.62891 34361 ft 472 kts 288°
2026-04-24 07:11 48.40520 13.53349 34364 ft 472 kts 288°
2026-04-24 07:11 48.42054 13.43733 34354 ft 472 kts 288°
2026-04-24 07:12 48.43670 13.34160 34358 ft 469 kts 293°
2026-04-24 07:12 48.45939 13.24941 34362 ft 467 kts 296°
2026-04-24 07:13 48.48312 13.15900 34362 ft 467 kts 296°
2026-04-24 07:13 48.50723 13.06803 34362 ft 467 kts 296°
2026-04-24 07:14 48.53122 12.97683 34361 ft 467 kts 296°
2026-04-24 07:14 48.55508 12.88541 34360 ft 468 kts 295°
2026-04-24 07:15 48.57881 12.79400 34362 ft 468 kts 295°
2026-04-24 07:15 48.60245 12.70255 34364 ft 468 kts 295°
2026-04-24 07:16 48.62600 12.61109 34365 ft 467 kts 295°
2026-04-24 07:16 48.64933 12.52018 34361 ft 466 kts 295°
2026-04-24 07:17 48.67274 12.42856 34361 ft 466 kts 295°
2026-04-24 07:17 48.69606 12.33690 34360 ft 467 kts 295°
2026-04-24 07:18 48.71936 12.24501 34359 ft 466 kts 294°
2026-04-24 07:18 48.74224 12.15373 34359 ft 467 kts 292°
2026-04-24 07:19 48.75715 12.05748 34345 ft 471 kts 284°
2026-04-24 07:19 48.76822 11.95935 34348 ft 472 kts 282°
2026-04-24 07:20 48.77849 11.86101 34369 ft 472 kts 282°
2026-04-24 07:20 48.78875 11.76261 34367 ft 472 kts 282°
2026-04-24 07:21 48.79910 11.66404 34372 ft 473 kts 282°
2026-04-24 07:21 48.80940 11.56550 34375 ft 473 kts 282°
2026-04-24 07:22 48.81943 11.46839 34374 ft 473 kts 282°
2026-04-24 07:22 48.82953 11.36971 34370 ft 473 kts 282°
2026-04-24 07:23 48.83982 11.28843 34367 ft 470 kts 290°
2026-04-24 07:23 48.86688 11.19980 34373 ft 461 kts 308°
2026-04-24 07:24 48.90946 11.12798 34369 ft 456 kts 319°
2026-04-24 07:24 48.95604 11.06252 34377 ft 456 kts 321°
2026-04-24 07:25 49.00324 10.99770 34370 ft 457 kts 320°
2026-04-24 07:25 49.05029 10.93229 34389 ft 457 kts 320°
2026-04-24 07:26 49.09706 10.86654 34387 ft 457 kts 320°
2026-04-24 07:26 49.14374 10.80048 34403 ft 457 kts 320°
2026-04-24 07:27 49.19031 10.73435 34399 ft 457 kts 319°
2026-04-24 07:27 49.23562 10.66575 34382 ft 459 kts 316°
2026-04-24 07:28 49.27977 10.59549 34383 ft 460 kts 316°
2026-04-24 07:28 49.32413 10.52465 34384 ft 460 kts 316°
2026-04-24 07:29 49.36476 10.44996 34388 ft 462 kts 303°
2026-04-24 07:29 49.39759 10.36489 34385 ft 463 kts 302°
2026-04-24 07:30 49.42934 10.27904 34382 ft 464 kts 301°
2026-04-24 07:30 49.46103 10.19239 34376 ft 465 kts 301°
2026-04-24 07:31 49.49267 10.10540 34379 ft 466 kts 301°
2026-04-24 07:31 49.52424 10.01828 34377 ft 466 kts 301°
2026-04-24 07:32 49.55571 9.93122 34368 ft 465 kts 301°
2026-04-24 07:32 49.58708 9.84406 34375 ft 464 kts 300°
2026-04-24 07:33 49.61835 9.75679 34374 ft 465 kts 300°
2026-04-24 07:33 49.64935 9.67002 34380 ft 465 kts 300°
2026-04-24 07:34 49.68047 9.58266 34386 ft 465 kts 300°
2026-04-24 07:34 49.71160 9.49496 34380 ft 465 kts 300°
2026-04-24 07:35 49.74176 9.40973 34392 ft 466 kts 299°
2026-04-24 07:35 49.77277 9.32176 34392 ft 466 kts 299°
2026-04-24 07:36 49.80375 9.23360 34400 ft 466 kts 299°
2026-04-24 07:36 49.83470 9.14524 34403 ft 466 kts 299°
2026-04-24 07:37 49.86449 9.05996 34408 ft 465 kts 298°
2026-04-24 07:37 49.89491 8.97247 34410 ft 465 kts 298°
2026-04-24 07:38 49.92558 8.88397 34406 ft 465 kts 298°
2026-04-24 07:38 49.95607 8.79571 34404 ft 465 kts 298°
2026-04-24 07:39 49.98661 8.70698 34403 ft 465 kts 298°
2026-04-24 07:39 50.01711 8.61810 34404 ft 465 kts 298°
2026-04-24 07:40 50.04731 8.52978 34403 ft 465 kts 298°
2026-04-24 07:40 50.07773 8.44066 34403 ft 465 kts 298°
2026-04-24 07:41 50.10810 8.35150 34412 ft 465 kts 298°
2026-04-24 07:41 50.13838 8.26246 34412 ft 465 kts 298°
2026-04-24 07:42 50.16863 8.17351 34412 ft 463 kts 297°
2026-04-24 07:42 50.19890 8.08468 34415 ft 464 kts 297°
2026-04-24 07:43 50.22921 7.99561 34418 ft 464 kts 297°
2026-04-24 07:43 50.25928 7.90701 34421 ft 464 kts 297°
2026-04-24 07:44 50.28953 7.81776 34424 ft 464 kts 297°
2026-04-24 07:44 50.31992 7.72830 34428 ft 465 kts 297°
2026-04-24 07:45 50.35038 7.63863 34430 ft 466 kts 297°
2026-04-24 07:45 50.38059 7.54953 34432 ft 466 kts 297°
2026-04-24 07:46 50.41076 7.46039 34438 ft 466 kts 297°
2026-04-24 07:46 50.44109 7.37073 34429 ft 464 kts 296°
2026-04-24 07:47 50.47135 7.28129 34429 ft 460 kts 296°
2026-04-24 07:47 50.50085 7.19399 34431 ft 453 kts 296°
2026-04-24 07:48 50.53035 7.10659 34438 ft 452 kts 296°
2026-04-24 07:48 50.55982 7.01912 34432 ft 453 kts 296°
2026-04-24 07:49 50.58941 6.93137 34441 ft 453 kts 296°
2026-04-24 07:49 50.61904 6.84438 34436 ft 454 kts 296°
2026-04-24 07:50 50.64891 6.75673 34449 ft 454 kts 296°
2026-04-24 07:50 50.67875 6.66900 34451 ft 454 kts 296°
2026-04-24 07:51 50.70857 6.58115 34454 ft 453 kts 296°
2026-04-24 07:51 50.73828 6.49350 34446 ft 452 kts 295°
2026-04-24 07:52 50.76795 6.40577 34446 ft 453 kts 295°
2026-04-24 07:52 50.79744 6.31841 34451 ft 453 kts 295°
2026-04-24 07:53 50.82707 6.23041 34465 ft 453 kts 295°
2026-04-24 07:53 50.85666 6.14238 34475 ft 453 kts 295°
2026-04-24 07:54 50.88620 6.05433 34478 ft 453 kts 294°
2026-04-24 07:54 50.91580 5.96592 34483 ft 454 kts 294°
2026-04-24 07:55 50.94536 5.87742 34484 ft 454 kts 294°
2026-04-24 07:55 50.97472 5.78935 34483 ft 454 kts 294°
2026-04-24 07:56 51.00418 5.70083 34484 ft 454 kts 294°
2026-04-24 07:56 51.03365 5.61207 34478 ft 454 kts 294°
2026-04-24 07:57 51.06316 5.52302 34482 ft 456 kts 294°
2026-04-24 07:57 51.09270 5.43367 34479 ft 456 kts 294°
2026-04-24 07:58 51.12218 5.34433 34480 ft 456 kts 294°
2026-04-24 07:58 51.15159 5.25503 34486 ft 455 kts 294°
2026-04-24 07:59 51.18101 5.16552 34484 ft 456 kts 293°
2026-04-24 07:59 51.21027 5.07629 34492 ft 457 kts 293°
2026-04-24 08:00 51.23948 4.98703 34493 ft 457 kts 293°
2026-04-24 08:00 51.26845 4.89837 34503 ft 455 kts 293°